Temp_Advection
nan nan nan nan nan nan nan nan nan nan nan nan nan nan nan nan nan nan nan nan nan nan
nan -0 -1 0 1 1 1 1 1 0 0 1 1 0 1 1 -1 -1 0 2 1 nan
nan -0 0 0 -0 1 0 1 0 0 1 1 0 1 1 0 -0 1 1 2 1 nan
nan 1 -0 -1 -0 -1 0 1 1 1 1 0 0 1 0 0 -0 -0 1 1 -1 nan
nan -1 -0 1 -1 -1 1 1 1 1 1 -0 0 0 0 0 -0 -1 0 -1 -0 nan
nan 0 1 -0 -1 0 1 1 1 0 0 0 0 -0 1 0 -0 0 1 1 1 nan
nan 1 1 -1 0 0 0 1 0 0 0 0 -0 1 1 0 0 2 1 1 1 nan
nan 0 -0 -0 1 0 0 0 0 0 -0 -0 0 0 0 0 1 1 1 1 0 nan
nan -1 -1 -0 1 0 -0 0 0 0 0 0 0 0 0 0 1 1 1 0 1 nan
nan -1 -0 0 0 0 0 -0 0 -0 0 0 0 -0 0 1 1 1 1 0 1 nan
nan -1 -0 -0 1 0 -0 -1 -0 1 1 0 -0 -0 1 1 2 2 1 1 1 nan
nan -1 -0 -0 0 1 1 0 0 0 0 0 1 1 2 2 3 2 1 1 2 nan
nan -1 -0 -0 0 1 0 0 0 1 1 2 1 1 1 2 3 2 1 1 2 nan
nan nan nan nan nan nan nan nan nan nan nan nan nan nan nan nan nan nan nan nan nan nan
Wind_Speed
37 36 53 52 53 52 50 54 57 60 50 48 52 50 51 49 46 48 46 40 43 43
36 32 53 53 55 56 52 53 59 56 54 50 55 56 56 50 51 50 46 46 44 44
36 28 44 56 56 60 55 53 55 56 57 54 53 58 57 50 51 53 51 51 47 44
26 40 29 58 59 58 56 55 56 57 61 54 56 53 54 51 51 52 53 52 48 44
23 33 36 52 56 55 55 53 56 58 58 54 54 58 56 55 48 50 52 50 50 47
19 31 27 43 50 50 48 53 56 57 56 54 53 56 60 57 52 53 52 50 52 47
13 19 22 41 49 51 50 52 52 55 55 55 54 55 56 57 55 55 54 55 54 49
4 12 18 34 40 53 49 50 50 52 55 56 56 58 58 57 57 57 57 55 52 51
8 9 8 30 40 47 53 51 53 53 54 55 57 56 56 58 53 57 57 55 53 52
10 10 3 19 36 40 50 51 50 49 50 51 54 54 53 54 54 54 52 52 53 52
11 8 3 9 26 38 44 52 52 51 49 48 50 50 47 46 49 51 52 52 53 54
14 10 6 1 12 29 34 48 49 48 50 52 52 51 49 48 48 50 51 51 53 50
13 10 8 4 6 16 33 37 46 48 46 46 48 48 47 48 50 51 51 49 46 44
12 10 8 6 4 13 21 32 39 42 43 43 44 44 43 44 49 51 50 48 46 46
Wind_Direction
240 220 221 212 213 212 207 203 206 206 212 213 212 207 207 210 213 211 216 210 216 218
234 231 223 222 217 213 215 208 208 211 211 209 212 212 214 213 211 210 211 213 211 214
235 226 214 225 215 215 213 214 212 212 212 210 216 216 219 219 217 216 215 215 211 211
244 233 228 214 219 219 213 216 213 213 211 213 219 216 219 219 218 221 221 218 213 211
231 228 230 203 218 218 215 221 217 215 214 215 218 217 217 219 221 219 219 217 213 212
238 221 217 210 218 216 220 219 217 217 215 216 218 219 218 219 218 218 223 220 216 218
241 217 209 208 215 219 217 218 218 217 217 217 219 219 222 223 223 221 222 223 225 222
281 235 222 198 202 218 217 220 221 220 220 220 221 222 223 223 228 225 225 225 226 224
317 291 225 205 201 213 218 219 219 219 219 220 221 223 226 226 229 229 229 229 225 222
322 302 207 204 203 203 218 217 215 218 219 221 222 223 226 229 230 231 230 228 227 222
334 320 340 209 201 208 216 219 218 217 219 221 224 222 225 227 229 230 229 228 229 225
337 335 337 217 205 203 207 217 213 217 218 222 223 224 226 225 225 224 226 228 229 223
342 344 332 333 213 202 204 208 216 213 216 220 223 223 222 222 221 220 222 225 226 220
352 348 338 324 279 228 204 212 215 218 218 220 221 221 220 221 221 221 222 223 217 210
Height
1403 1398 1409 1416 1422 1429 1435 1440 1447 1453 1461 1467 1472 1479 1485 1490 1495 1503 1510 1512 1523 1531
1396 1401 1401 1408 1417 1422 1427 1434 1440 1447 1453 1460 1466 1472 1479 1483 1489 1495 1502 1510 1515 1525
1388 1391 1393 1399 1407 1412 1420 1425 1432 1440 1446 1452 1459 1466 1472 1478 1486 1490 1495 1505 1512 1517
1377 1381 1384 1389 1396 1404 1412 1416 1424 1434 1440 1447 1452 1459 1466 1473 1478 1482 1489 1500 1506 1511
1374 1374 1373 1379 1387 1396 1403 1408 1416 1426 1433 1439 1445 1452 1458 1465 1470 1477 1485 1492 1499 1505
1364 1357 1370 1375 1381 1388 1396 1402 1410 1419 1425 1431 1437 1445 1452 1458 1465 1472 1478 1484 1493 1499
1355 1360 1366 1372 1375 1380 1387 1396 1403 1410 1417 1425 1432 1438 1446 1452 1459 1464 1471 1478 1485 1491
1357 1361 1360 1360 1366 1373 1381 1389 1396 1403 1410 1416 1423 1429 1436 1443 1451 1456 1462 1469 1477 1485
1355 1357 1354 1355 1361 1368 1373 1379 1387 1393 1399 1406 1413 1421 1428 1436 1443 1448 1454 1459 1469 1477
1356 1356 1349 1351 1357 1360 1365 1371 1376 1384 1391 1397 1405 1412 1421 1428 1435 1441 1445 1452 1459 1467
1356 1351 1345 1346 1348 1355 1361 1363 1369 1376 1383 1390 1397 1405 1413 1420 1428 1432 1437 1443 1449 1457
1355 1345 1345 1342 1344 1349 1354 1358 1360 1368 1376 1382 1390 1397 1405 1413 1418 1423 1428 1434 1441 1449
1355 1347 1343 1341 1342 1346 1349 1350 1355 1361 1368 1376 1383 1389 1397 1403 1408 1413 1419 1426 1434 1442
1352 1346 1341 1340 1340 1343 1338 1346 1350 1355 1360 1368 1375 1382 1387 1393 1398 1405 1411 1417 1424 1434